Weather History for Oujda, Morocco

Change the Weather History Date:

Saturday, October 20, 2012

  Actual Average Record
Temperature  
Mean Temperature 56 °F -  
Max Temperature 60 °F 69 °F 93 °F (2002)
Min Temperature 53 °F 48 °F 46 °F (1998)
Degree Days  
Heating Degree Days 8    
Growing Degree Days 6 (Base 50)    
Moisture  
Dew Point 52 °F    
Average Humidity 83    
Maximum Humidity 100    
Minimum Humidity 61    
Precipitation  
Precipitation 0.20 in 0.05 in - ()
Sea Level Pressure  
Sea Level Pressure 29.93 in    
Wind  
Wind Speed 9 mph ()    
Max Wind Speed 20 mph    
Max Gust Speed -    
Visibility 5.0 miles    
Events Rain , Thunderstorm    
Averages and records for this station are not official NWS values.
T = Trace of Precipitation, MM = Missing Value Source: Averaged Metar Reports

Daily Weather History Graph

Daily Weather History Graph

Search for Another Location

Airport:

Trip Planner

Search our weather history database for the weather conditions in past years. The results will help you decide how hot, cold, wet, or windy it might be!

Date:

Astronomy

Oct. 20, 2012 Rise Set
Actual Time 6:17 AM WET 5:26 PM WET
Civil Twilight 5:52 AM WET 5:52 PM WET
Nautical Twilight 5:22 AM WET 6:21 PM WET
Astronomical Twilight 4:53 AM WET 6:50 PM WET
Moon 11:34 AM WET (10/20) 10:02 PM WET (10/20)
Length of Visible Light 11h 59m
Length of Day
11h 08m
Waxing Crescent, 32% of the Moon is Illuminated
Oct 20
Waxing Crescent
Oct 22
First Quarter
Oct 29
Full
Nov 7
Last Quarter
Nov 13
New

Hourly Weather History & Observations

Time (WET) Temp. Dew Point Humidity Pressure Visibility Wind Dir Wind Speed Gust Speed Precip Events Conditions
12:00 AM 57.2 °F 57.2 °F 100% 29.86 in 5.0 mi North 8.1 mph - N/A   Partly Cloudy
6:00 AM 54 °F 54 °F 100% 29.85 in 4 mi NNW 9.2 mph - - Rain Light Rain Showers
7:21 AM 53.6 °F 53.6 °F 100% 29.89 in 1.9 mi West 18.4 mph - N/A Rain Rain
8:00 AM 53.6 °F 53.6 °F 100% 29.92 in 3.1 mi WSW 18.4 mph - N/A Rain Light Rain
9:00 AM 54 °F 54 °F 100% 29.92 in 4 mi SW 2.3 mph - - Rain Light Rain
9:00 AM 55.4 °F 55.4 °F 100% 29.92 in 3.7 mi Variable 2.3 mph - N/A   Mostly Cloudy
10:00 AM 55.4 °F 55.4 °F 100% 29.92 in 3.7 mi SW 10.4 mph - N/A   Mostly Cloudy
11:00 AM 55.4 °F 53.6 °F 94% 29.92 in 3.7 mi WSW 12.7 mph - N/A   Mostly Cloudy
12:00 PM 57 °F 52 °F 78% 29.93 in 4 mi West 11.5 mph - -   Partly Cloudy
12:00 PM 57.2 °F 51.8 °F 82% 29.95 in 3.7 mi West 11.5 mph - N/A   Mostly Cloudy
1:00 PM 59.0 °F 51.8 °F 77% 29.92 in 6.2 mi Calm Calm - N/A   Mostly Cloudy
2:00 PM 60.8 °F 51.8 °F 72% 29.92 in 6.2 mi WSW 12.7 mph - N/A   Mostly Cloudy
2:49 PM 60 °F 50 °F 61% 29.91 in 6 mi WSW 11.5 mph - -   Mostly Cloudy
3:00 PM 60.8 °F 50.0 °F 68% 29.92 in 6.2 mi West 11.5 mph - N/A   Mostly Cloudy
5:00 PM 60.8 °F 51.8 °F 72% 29.92 in 6.2 mi West 9.2 mph - N/A   Mostly Cloudy
7:00 PM 59.0 °F 50.0 °F 72% 29.95 in 6.2 mi WSW 12.7 mph - N/A   Scattered Clouds
8:00 PM 59.0 °F 50.0 °F 72% 29.98 in 6.2 mi WSW 11.5 mph - N/A   Scattered Clouds
9:00 PM 57 °F 51 °F 72% 29.98 in 6 mi SW 13.8 mph - -   Partly Cloudy
9:00 PM 57.2 °F 50.0 °F 77% 29.98 in 6.2 mi SW 13.8 mph - N/A   Scattered Clouds
10:00 PM 55.4 °F 50.0 °F 82% 30.01 in 6.2 mi WSW 6.9 mph - N/A   Partly Cloudy
10:58 PM 55.4 °F 48.2 °F 77% 29.98 in 6.2 mi WSW 17.3 mph - N/A Thunderstorm Thunderstorm
11:00 PM 55.4 °F 48.2 °F 77% 29.98 in 6.2 mi WSW 19.6 mph - N/A   Partly Cloudy